Location: Mahannah Oil Field
(37.4664°N, 96.6003°W)
Time: 15:30:27
(UTC+00:00)

Vanguard 2 Rocket - Pass Details

Date: 27 January 2021
Orbit: 554 x 3325 km, 32.9° (Epoch: 06 March)

Event Time Altitude Azimuth Distance (km) Brightness Sun altitude
Rises 00:22:12 0° 273° (W) 5,718 12.5 -7.9°
Reaches altitude 10° 00:26:44 10° 270° (W) 4,247 11.7 -8.7°
Maximum altitude 00:36:45 55° 196° (SSW) 1,395 8.0 -10.6°
Drops below altitude 10° 00:42:30 10° 119° (ESE) 2,483 8.7 -11.7°
Enters shadow 00:43:10 - 117° (ESE) 2,717 8.9 -11.9°
Sets 00:44:31 0° 115° (ESE) 3,214 - -12.1°
